Weather Service Report


350 
ASUS41 KRLX 280910
RWRRLX
West Virginia Regional Weather Roundup
National Weather Service Charleston WV
500 AM EDT TUE MAR 28 2017

Note: "fair" indicates few or no clouds below 12,000 feet with no
significant weather and/or obstructions to visibility.

WVZ003-281000-
Northern Panhandle of West Virginia
  
CITY           SKY/WX    TMP DP  RH WIND       PRES   REMARKS
WHEELING       LGT RAIN  55  53  93 SW3       29.85R FOG              
$$

WVZ009-281000-
Northwest West Virginia
  
CITY           SKY/WX    TMP DP  RH WIND       PRES   REMARKS
PARKERSBURG    CLOUDY    56  54  93 SE3       29.86F                  
$$

WVZ006-281000-
Western West Virginia
  
CITY           SKY/WX    TMP DP  RH WIND       PRES   REMARKS
HUNTINGTON     CLOUDY    55  54  96 CALM      29.83F                  
$$

WVZ015-281000-
West Central West Virginia
  
CITY           SKY/WX    TMP DP  RH WIND       PRES   REMARKS
CHARLESTON     LGT RAIN  55  54  96 CALM      29.83F                  
$$

WVZ022-031-281000-
North Central West Virginia
  
CITY           SKY/WX    TMP DP  RH WIND       PRES   REMARKS
CLARKSBURG     LGT RAIN  56  54  93 S3        29.87S                  
MORGANTOWN     CLOUDY    57  52  83 S6        29.87S                  
$$

WVZ025-035-042-045-281000-
Southern West Virginia
  
CITY           SKY/WX    TMP DP  RH WIND       PRES   REMARKS
BECKLEY        LGT RAIN  54  50  86 S7        29.87F                  
LOGAN          LGT RAIN  57  54  88 CALM      29.85S                  
BLUEFIELD      CLOUDY    54  48  80 SW6       29.89F                  
LEWISBURG      LGT RAIN  52  51  99 CALM      29.89S                  
$$

WVZ047-281000-
Northern Mountains of West Virginia
  
CITY           SKY/WX    TMP DP  RH WIND       PRES   REMARKS
ELKINS         LGT RAIN  54  52  93 E3        29.88F FOG              
$$

WVZ052-281000-
Eastern Panhandle of West Virginia
  
CITY           SKY/WX    TMP DP  RH WIND       PRES   REMARKS
MARTINSBURG    CLOUDY    52  50  93 N6        29.84F FOG              
PETERSBURG     CLOUDY    54  54  99 CALM      29.86F FOG              
$$
  

Return to Home page


Western Regional Climate Center, wrcc@dri.edu